RH
34 32 39 44 46 45 45 47 41 27 16 12 9 6 6 5 3 4 4 3 3 3 4 4 3 3 3 3 4 4 4 4 4 4 4 5 6 6 7 7 8 10 9 10 10 10 12 15 15 14 13 14 16 15 15 16 16 17 18 19 21 22 28 34 32 28 27 28 30 32 34 35 36 40 41 40 43 45 48 54 54 55 55 51 58 65 55
37 38 43 44 44 45 46 42 28 15 10 8 6 5 4 3 3 4 3 3 3 4 4 4 3 4 4 3 4 4 4 4 4 5 5 5 6 7 7 8 8 9 10 10 11 10 13 15 14 13 13 14 14 14 15 16 17 17 18 19 20 22 28 33 35 37 36 34 38 40 38 39 42 44 46 47 48 51 52 52 54 58 56 53 63 67 54
38 40 43 43 44 45 38 25 13 8 7 6 4 3 2 3 3 4 3 3 3 4 4 4 4 4 4 4 4 4 5 5 5 6 6 7 8 8 8 9 9 10 10 10 9 10 11 13 12 13 13 13 13 14 15 16 17 18 20 20 22 24 24 27 37 48 50 47 47 47 43 41 44 47 51 51 51 54 56 56 60 66 64 61 66 68 60
38 41 42 41 38 31 19 10 7 7 6 3 2 2 2 3 3 3 3 4 4 5 4 4 4 4 4 5 6 6 6 7 8 8 9 9 9 9 10 10 10 10 10 9 9 10 10 12 12 13 13 13 14 16 17 20 21 22 23 24 25 27 26 28 34 40 42 41 40 40 42 43 46 51 53 52 54 56 57 60 65 68 72 70 66 66 65
39 38 34 27 20 13 8 7 6 5 3 2 3 3 2 3 3 3 4 4 5 5 5 6 7 7 8 9 9 10 10 11 11 12 12 12 12 12 12 12 11 11 11 10 11 10 10 12 13 14 16 17 19 21 22 24 25 25 26 28 28 29 28 30 35 37 39 39 38 40 44 46 48 50 51 54 58 59 59 63 65 68 78 79 68 64 63
30 24 18 13 10 8 6 6 4 2 3 3 2 2 3 4 5 6 7 7 9 9 10 12 13 13 13 13 12 13 14 14 14 14 14 14 14 14 13 13 12 12 11 11 11 12 13 15 17 19 21 22 23 24 25 26 27 27 29 29 30 31 32 34 37 39 39 40 42 44 46 47 50 52 55 59 61 62 64 66 64 66 75 77 67 60 58
15 11 10 8 7 6 4 3 3 2 3 2 3 6 7 9 11 12 13 13 14 15 15 16 17 16 16 15 15 16 16 16 16 16 16 15 15 15 14 13 12 12 12 12 14 16 19 21 23 24 24 25 25 25 26 27 28 28 29 30 31 34 36 39 42 39 37 42 47 48 49 52 54 57 60 59 59 62 64 63 61 61 63 63 60 58 59
9 9 8 6 5 3 2 2 2 3 5 7 10 13 14 16 17 17 18 18 18 18 18 18 17 17 16 16 16 17 17 17 16 16 16 15 15 14 13 12 13 14 15 18 21 23 24 26 26 25 25 24 24 26 27 27 28 29 30 31 34 37 38 42 45 40 38 45 51 52 56 59 59 60 61 60 59 60 59 60 61 62 63 62 62 63 62
7 6 4 3 3 2 2 4 6 9 12 15 17 18 18 20 20 19 19 19 18 18 18 18 17 16 16 16 16 16 16 16 15 15 15 14 14 14 14 15 17 20 22 24 25 24 24 25 26 26 25 22 22 26 27 28 30 30 32 34 36 39 41 42 45 44 41 46 51 53 58 61 60 62 64 63 63 63 64 67 66 65 67 67 66 70 72
4 4 3 2 3 5 8 12 15 17 18 19 20 20 20 20 20 20 19 18 18 17 17 17 16 16 16 16 16 16 15 15 15 15 15 15 16 18 20 22 23 24 25 25 25 23 21 21 22 22 21 19 20 24 25 28 31 31 34 36 37 41 43 42 48 50 44 45 51 52 58 67 67 67 68 67 68 69 69 69 68 67 70 69 69 75 78
3 3 4 7 11 14 17 18 19 19 19 20 20 20 20 19 19 18 17 17 17 16 16 16 16 16 16 16 16 16 16 16 16 16 18 19 22 24 24 24 25 25 26 25 24 21 17 17 18 19 20 21 23 23 25 29 33 34 35 37 39 44 44 43 50 55 51 51 54 53 62 75 73 69 71 71 72 74 74 72 71 70 69 69 72 74 73
6 9 13 16 18 18 19 18 19 19 19 19 19 19 18 17 17 17 17 17 16 16 16 16 16 17 17 16 17 17 18 19 19 21 23 24 25 26 25 25 25 25 25 24 22 18 17 18 21 22 25 27 27 28 31 33 34 35 37 40 42 43 44 46 54 62 62 58 58 63 72 76 70 69 76 77 75 76 72 66 66 68 70 72 72 74 78
15 17 18 18 17 18 18 18 18 18 18 18 18 18 17 17 17 18 17 17 17 17 17 16 17 18 18 18 20 21 22 23 24 25 26 25 26 26 25 25 24 24 24 23 19 18 20 23 26 28 30 31 32 34 36 35 36 38 40 43 44 45 49 53 57 64 66 62 65 76 78 73 69 72 75 73 71 70 66 63 69 77 76 74 77 85 88
18 18 17 17 18 18 18 18 18 18 19 19 18 18 18 19 19 19 20 19 18 17 17 18 19 20 20 21 23 24 24 25 26 26 26 26 26 26 26 25 24 24 24 20 18 20 24 28 31 33 33 35 37 38 38 38 41 42 43 46 47 48 54 57 58 65 71 69 68 69 69 72 75 77 80 81 78 76 75 74 77 80 80 85 94 93 79
17 18 18 18 19 19 19 20 20 20 20 20 20 20 20 21 21 22 22 21 19 19 20 21 21 21 23 24 25 25 25 26 27 27 26 26 27 26 26 26 25 25 23 20 20 24 28 32 36 37 37 38 38 39 41 44 46 47 48 49 49 51 55 57 63 71 73 72 68 63 67 79 83 81 86 87 81 81 81 72 69 78 87 89 83 68 53
18 19 19 20 20 20 21 20 20 21 21 21 21 21 21 22 22 23 23 22 21 21 21 22 23 23 24 25 26 26 25 26 26 26 26 27 27 27 27 26 26 26 23 21 23 27 32 38 40 40 40 41 40 41 44 47 49 50 50 49 51 54 54 55 66 73 69 68 71 68 69 80 83 78 78 78 76 75 70 62 62 72 77 70 60 54 48
19 20 20 20 20 20 21 21 21 21 21 21 22 21 22 22 22 23 23 22 22 23 23 23 23 24 25 27 27 26 25 26 26 26 27 28 28 28 28 27 28 26 23 22 26 32 38 42 43 42 43 44 45 46 47 49 52 52 52 54 54 53 53 56 65 67 63 67 74 69 68 78 79 70 69 74 71 62 60 64 62 52 51 60 65 58 39
19 20 20 20 20 20 20 20 20 20 21 21 21 22 22 22 22 23 23 23 23 24 24 24 23 25 26 27 27 26 26 26 26 27 28 28 29 29 28 29 29 26 23 26 32 37 42 45 46 45 47 49 50 50 50 52 55 55 56 59 56 52 56 65 68 61 59 68 73 67 70 78 73 67 71 69 57 53 67 83 80 63 53 56 54 35 15
18 18 18 18 17 18 18 18 18 19 19 20 21 22 22 22 23 24 24 24 24 24 25 24 25 26 26 27 28 27 26 27 28 28 29 29 31 30 29 31 30 25 26 31 37 40 44 47 49 49 51 54 54 53 54 54 57 59 59 60 57 52 57 68 70 64 64 69 71 69 74 76 68 69 75 64 53 68 84 88 91 85 61 36 22 13 8
17 16 16 16 16 16 16 16 17 17 17 18 19 21 22 22 23 24 24 25 25 25 25 25 25 26 27 28 29 28 28 29 29 29 31 31 32 31 31 31 29 27 31 35 39 42 45 49 52 52 53 56 55 56 57 57 60 63 61 62 60 56 59 66 69 72 75 74 74 79 85 80 70 69 69 57 61 88 96 82 73 62 35 13 9 10 10
14 13 12 12 12 12 12 12 14 14 15 17 17 19 21 22 22 23 24 24 25 25 25 25 26 27 28 28 28 28 29 30 30 31 32 32 33 33 32 31 30 32 34 35 38 42 45 50 54 54 56 59 58 58 60 63 68 66 60 61 61 58 62 67 70 80 85 77 74 83 87 81 75 73 67 61 73 90 85 62 42 25 11 9 11 11 11
9 8 8 7 7 8 8 8 9 10 12 15 16 18 20 20 21 22 22 23 24 24 24 25 26 28 28 28 28 28 29 30 31 31 32 33 34 35 33 31 32 33 31 31 37 42 45 50 53 55 59 60 59 59 61 65 71 67 59 59 60 62 70 75 76 82 80 71 72 80 78 70 68 68 65 63 69 68 50 30 17 10 10 12 11 11 11
5 5 6 6 6 7 7 7 7 8 9 11 13 16 18 18 20 21 21 22 23 23 23 25 26 28 28 27 28 28 29 31 31 31 32 34 34 34 33 33 31 28 25 28 35 41 45 50 51 53 57 57 57 60 61 61 65 65 60 60 63 68 77 78 74 70 63 60 67 70 63 58 60 62 61 55 48 38 23 13 10 10 11 12 11 10 7
5 5 5 6 7 7 7 8 8 8 8 8 9 12 14 16 17 18 19 21 22 21 22 24 26 27 27 27 28 30 30 30 31 32 34 34 34 34 34 31 26 22 23 28 34 37 42 46 47 50 54 54 54 58 59 59 62 60 59 64 68 72 74 69 62 56 48 49 56 55 51 55 59 58 55 45 31 21 14 11 11 12 12 11 9 6 5
4 4 5 6 7 7 7 8 8 8 8 8 8 9 10 11 13 15 17 19 19 19 21 23 24 25 26 28 29 30 31 31 33 34 33 34 35 35 30 24 20 19 23 28 30 33 37 42 44 48 52 51 49 52 56 60 59 56 58 66 69 69 68 61 54 48 42 44 51 50 49 55 58 52 43 31 20 15 13 12 12 12 11 9 5 5 6
4 4 5 6 6 7 8 8 8 9 9 9 9 9 9 10 12 14 16 16 17 18 20 22 23 25 27 29 30 31 32 33 33 33 34 35 34 29 22 18 18 21 24 25 26 29 35 40 42 46 48 47 46 50 55 57 56 56 63 70 70 68 63 54 44 40 40 45 49 46 44 50 54 47 31 18 14 14 13 13 13 11 9 7 5 5 7
4 4 5 5 6 7 8 8 8 9 9 10 11 10 11 12 13 15 16 16 18 20 22 23 26 28 29 30 31 32 33 33 34 35 35 32 26 20 17 18 20 22 22 21 24 30 34 37 38 39 41 43 45 48 50 53 55 60 67 73 71 63 53 43 39 39 43 49 53 52 53 55 50 38 23 15 14 15 13 13 12 9 6 5 4 5 6
4 4 4 5 6 6 7 8 9 10 10 11 12 13 13 14 16 18 19 19 21 24 26 27 29 30 31 32 32 33 34 35 36 33 28 22 18 16 18 19 20 21 20 20 25 31 33 32 32 33 37 42 43 44 48 53 57 62 68 70 64 52 41 40 44 46 48 52 57 60 61 55 41 28 20 16 15 14 13 12 10 7 5 5 5 6 6
4 4 5 5 6 6 7 8 9 10 11 12 13 15 15 16 18 20 20 22 25 27 28 30 31 31 32 33 34 36 37 34 29 23 18 17 17 18 19 20 20 19 19 22 27 31 31 28 27 32 40 43 43 48 54 56 58 65 69 63 50 41 39 43 47 47 49 53 58 61 57 44 30 22 19 16 15 14 12 10 7 5 5 5 6 7 7
8 8 8 8 8 8 8 9 9 10 12 13 15 16 17 19 22 22 22 24 27 30 31 32 32 33 35 37 38 36 31 24 19 16 16 17 18 18 19 20 19 18 20 26 29 29 29 27 25 32 41 44 45 52 58 61 66 71 63 48 39 37 41 45 48 49 52 56 59 59 50 35 24 20 17 15 15 13 10 8 6 5 5 6 6 7 7
16 16 15 15 15 13 12 12 12 12 14 17 18 19 21 23 24 24 24 27 31 32 33 34 35 37 38 37 32 26 20 16 15 16 17 17 17 18 19 20 19 19 22 28 28 26 27 27 26 31 39 42 43 49 56 66 73 64 46 36 38 39 40 44 50 54 57 58 57 53 44 32 24 21 18 15 13 11 8 7 5 5 5 6 6 7 7
20 21 21 21 21 19 18 17 17 17 19 21 22 24 25 26 26 26 28 31 33 34 36 37 38 36 32 26 20 16 15 16 16 17 18 17 16 17 19 19 19 20 24 28 28 25 25 25 25 30 37 40 41 46 54 61 59 44 34 36 39 37 38 45 51 55 59 59 55 49 41 32 24 20 17 15 12 9 7 5 5 5 6 6 7 7 8
20 21 21 22 22 22 21 21 21 22 23 24 25 27 27 27 28 29 31 33 34 35 35 35 31 25 20 16 15 15 16 16 16 17 18 16 15 16 19 19 18 21 25 28 29 26 25 25 26 30 35 37 36 39 43 44 38 32 34 38 36 34 40 47 51 54 58 58 53 46 38 30 24 19 16 14 10 8 7 5 5 6 6 6 7 8 8
19 20 20 21 22 22 22 22 23 24 25 26 27 28 28 28 30 31 32 33 33 31 28 25 20 16 14 13 15 16 16 15 16 16 16 15 14 17 19 18 19 22 25 27 30 29 27 26 28 31 33 34 33 32 32 31 30 31 34 35 34 37 42 46 49 53 56 55 51 43 33 27 22 18 15 12 9 7 6 5 5 6 6 7 8 8 8
17 18 19 19 20 21 22 23 23 25 26 27 27 28 28 29 31 31 31 30 27 23 20 17 15 14 14 13 13 15 15 16 16 15 15 15 15 17 18 19 20 23 24 26 30 31 28 25 27 28 29 30 29 28 27 27 27 29 31 34 37 39 40 43 47 52 54 53 49 41 32 26 21 17 13 11 9 7 6 5 6 7 7 7 8 8 8
16 17 18 18 19 20 21 22 23 24 26 26 27 28 28 29 29 29 27 24 21 18 16 15 15 14 13 12 13 14 15 16 16 14 14 14 15 17 18 18 20 21 21 23 28 30 27 24 25 26 25 25 24 24 25 26 26 27 32 37 39 39 42 46 48 51 53 51 46 39 32 25 20 15 12 10 8 6 6 6 6 7 8 8 8 9 8
15 16 17 17 17 19 20 21 22 23 25 26 26 27 28 28 27 26 23 21 18 17 16 16 15 14 12 12 12 14 15 16 15 13 12 14 15 17 17 17 18 20 18 20 25 28 25 23 24 23 21 21 22 22 24 24 26 31 37 40 40 41 45 49 50 50 51 49 43 37 31 24 18 14 11 9 8 6 5 6 6 7 8 8 8 9 9
15 15 16 17 17 18 19 21 21 22 24 25 25 26 27 26 24 23 21 19 17 16 16 16 15 13 12 11 11 14 15 15 14 12 11 14 16 16 16 18 19 18 17 19 24 25 23 22 22 19 17 17 19 21 23 25 29 35 39 40 41 43 47 52 53 52 51 47 42 36 30 23 18 13 10 9 8 6 5 7 7 8 9 9 9 9 10
15 15 16 17 17 17 19 20 20 22 24 24 25 25 25 24 23 22 20 18 17 17 18 17 15 13 11 10 11 13 15 15 13 10 10 13 15 15 16 19 19 16 15 20 23 22 20 20 18 15 14 15 17 20 24 28 33 38 39 39 41 45 50 54 56 54 51 46 38 31 24 19 15 12 10 9 7 6 6 7 8 8 9 9 9 9 10
15 14 15 17 17 17 18 19 20 21 23 24 24 25 24 23 22 21 19 18 18 18 18 17 14 12 11 10 11 13 15 14 12 9 9 11 13 13 14 17 17 15 15 19 21 19 18 17 14 12 14 16 19 23 27 30 35 39 40 40 43 47 51 55 56 54 50 44 34 25 19 14 11 10 10 8 7 6 6 7 8 9 9 9 10 10 11
15 14 15 17 17 17 18 19 20 21 23 24 24 25 24 23 22 21 19 19 19 18 18 17 14 11 10 11 11 13 14 13 10 9 9 9 11 12 12 13 15 15 16 18 18 16 15 15 13 13 16 19 22 25 28 31 35 39 42 42 45 49 52 55 57 54 49 41 32 23 16 12 10 10 9 7 7 7 7 7 9 10 9 10 10 11 11
15 14 15 16 17 17 18 20 21 22 23 24 24 25 25 23 22 21 19 19 20 18 17 16 13 10 10 11 11 13 14 12 9 9 9 9 10 11 11 11 13 14 16 17 16 14 14 14 13 14 16 19 21 23 27 31 35 41 43 44 46 49 53 55 56 53 47 38 29 20 15 11 11 10 9 7 7 7 8 9 10 10 10 10 11 11 12
15 14 14 16 18 17 17 20 21 22 23 25 26 26 25 23 22 21 20 20 20 18 16 14 12 10 10 11 11 12 12 10 9 9 9 9 9 11 11 12 12 13 15 15 14 12 14 15 14 15 17 19 19 22 27 32 36 41 44 45 47 50 53 55 55 52 45 36 26 18 13 11 11 10 8 7 7 7 8 9 10 10 10 11 11 12 13
14 14 14 16 17 17 18 20 22 22 24 26 27 28 27 25 23 22 21 21 21 18 16 14 11 9 9 10 11 11 10 9 9 10 10 9 10 11 12 12 12 13 13 13 12 12 14 15 15 16 19 20 21 24 29 33 35 38 42 45 47 50 53 53 53 50 43 34 24 17 13 11 11 10 8 7 7 8 9 10 10 10 11 11 12 13 14
15 14 15 17 17 17 18 21 23 24 26 28 29 29 29 27 26 24 23 22 21 18 16 14 11 9 9 10 10 10 9 8 9 10 10 10 11 12 12 12 13 12 12 12 12 13 14 14 14 16 18 20 22 25 29 31 33 36 40 44 48 50 52 53 52 49 42 33 24 17 12 11 11 10 8 7 7 8 9 10 10 10 11 12 13 14 15
15 15 16 17 17 18 19 22 24 26 28 30 31 32 31 29 28 26 24 23 21 18 16 14 11 10 10 10 9 9 8 8 10 11 10 10 11 12 12 13 13 12 13 13 14 14 14 15 16 17 18 19 21 25 28 31 34 36 40 44 48 51 54 55 52 48 40 31 22 15 12 12 11 10 8 7 8 9 10 11 11 11 12 12 13 15 15
15 16 16 17 18 19 20 22 26 29 30 32 34 34 33 33 31 28 27 25 22 19 17 14 12 12 12 10 9 8 8 9 10 11 11 11 12 13 13 13 13 13 14 15 15 15 15 16 17 18 18 18 20 24 28 32 34 36 40 45 49 53 56 56 52 47 39 29 19 13 12 12 12 10 8 8 8 9 10 11 11 12 13 13 14 15 16
16 17 17 17 19 19 20 22 27 31 33 35 37 37 37 36 34 31 30 27 24 20 18 15 14 13 12 10 8 8 8 9 11 12 11 12 13 14 14 14 14 15 16 16 16 16 16 17 18 18 18 19 20 24 28 31 33 36 42 47 51 55 57 57 52 46 37 26 18 13 12 12 11 10 8 8 9 10 11 11 12 13 14 14 15 16 17
17 17 18 18 19 19 19 22 27 31 34 37 39 39 40 39 37 35 34 30 25 23 20 17 16 15 13 10 8 8 9 10 11 12 12 13 14 15 15 15 15 16 16 16 17 17 18 18 19 19 19 19 21 24 28 31 34 38 44 49 54 58 60 57 52 44 34 23 16 12 12 12 12 10 8 8 9 10 11 11 12 14 14 15 16 17 18
17 17 18 19 19 19 19 21 25 29 34 38 40 41 42 43 41 39 37 33 28 25 21 19 18 17 13 10 9 9 10 11 12 12 12 13 14 15 16 16 16 17 17 17 18 18 19 19 20 21 21 21 22 25 28 32 36 41 46 51 56 61 62 59 51 40 29 19 14 12 12 13 11 10 9 9 9 10 12 12 13 14 15 16 18 18 19
18 18 19 20 20 20 20 21 23 27 32 37 40 43 44 45 44 43 41 37 32 27 23 21 19 17 13 10 10 10 11 11 11 12 12 13 14 15 17 17 17 18 18 18 18 19 20 21 21 22 22 22 23 25 28 33 38 44 49 53 58 63 64 60 50 37 23 16 13 13 13 13 11 10 9 9 10 11 12 13 14 15 16 17 18 20 21
19 19 19 20 21 21 21 21 21 24 29 35 40 44 46 47 47 47 45 41 36 31 26 23 21 17 14 12 11 11 11 11 11 11 12 12 13 15 16 17 18 19 19 18 19 20 21 21 22 23 23 24 24 26 30 35 41 47 52 56 61 64 65 60 50 35 22 15 13 13 13 13 12 10 9 10 11 11 12 13 14 16 16 17 19 20 22
Wind_Speed
3 4 5 6 9 11 12 12 14 15 16 16 17 16 14 13 12 12 11 12 13 12 9 9 11 12 12 12 13 13 13 13 13 13 14 14 13 13 12 13 13 13 14 14 14 15 14 10 8 10 12 13 13 15 16 16 16 16 16 15 15 15 11 13 19 19 18 17 14 12 9 7 9 12 14 13 11 12 13 13 15 16 14 14 11 6 4
3 4 6 8 10 12 13 13 14 15 16 16 15 13 12 12 11 11 11 13 13 11 9 12 14 13 12 13 13 13 14 13 13 13 14 14 13 13 13 13 14 13 13 13 13 14 12 9 10 13 13 14 15 16 16 15 16 17 17 17 17 13 8 11 16 13 11 9 4 3 7 13 17 15 12 13 15 17 17 14 13 11 9 9 7 6 7
4 5 7 9 11 12 13 13 14 15 15 14 13 12 12 11 11 11 12 14 13 9 10 14 15 13 13 14 13 13 13 13 13 14 14 13 13 13 13 13 13 12 12 13 14 13 12 11 12 13 14 15 15 15 15 16 17 18 17 16 16 14 12 12 9 5 5 6 4 8 16 22 20 15 13 17 18 18 16 13 8 7 8 11 11 13 18
5 6 9 11 12 12 13 13 14 14 13 12 12 12 12 13 13 13 14 14 11 10 13 15 14 13 13 13 13 13 13 13 13 13 13 13 13 14 14 13 13 13 14 14 14 14 13 12 13 14 15 15 15 16 17 18 18 16 15 14 14 14 15 14 11 10 11 13 15 17 20 22 20 16 18 19 18 18 18 13 8 9 14 16 13 15 24
7 9 10 11 12 12 12 13 12 12 11 11 12 13 14 14 14 15 15 13 10 12 13 13 13 13 13 13 13 13 13 13 13 13 12 13 14 14 13 13 13 14 15 15 14 15 14 14 13 14 15 16 16 17 18 18 16 14 14 14 14 16 18 16 14 14 15 17 19 17 15 16 16 16 18 18 17 18 16 11 8 11 14 14 12 17 27
9 10 10 11 11 12 12 11 11 11 11 12 13 14 15 14 14 14 14 12 12 13 13 12 13 13 12 12 12 12 13 13 13 13 13 13 13 13 13 13 13 14 14 14 14 14 14 14 14 15 16 17 17 18 19 17 15 15 16 16 16 16 17 16 16 17 17 18 16 12 10 12 13 15 16 14 12 13 12 10 10 12 11 14 20 26 29
9 9 10 10 11 11 10 10 11 12 13 14 14 14 13 13 12 12 13 13 13 13 13 13 13 13 12 12 11 12 13 13 13 13 13 12 12 13 13 13 13 13 13 13 14 14 15 15 15 16 17 18 19 20 19 16 16 18 18 17 16 14 14 15 17 19 20 19 14 11 11 12 12 13 12 9 6 6 7 9 10 13 15 18 26 30 27
8 9 9 10 10 10 10 11 13 14 14 14 13 13 12 12 12 12 12 12 12 12 12 13 12 12 12 12 12 12 13 13 13 13 12 12 12 12 12 12 12 12 12 13 14 15 16 16 17 18 19 20 20 20 18 18 19 19 16 14 13 12 13 14 16 20 21 16 14 15 14 11 10 10 9 7 6 5 7 12 15 19 21 24 27 28 25
8 8 8 9 10 11 12 13 13 13 13 12 12 12 12 12 12 12 12 12 12 12 12 12 12 12 12 12 12 12 12 12 12 12 11 12 11 11 11 11 11 11 12 13 14 16 17 18 18 19 20 21 20 19 18 18 18 16 13 12 13 12 13 14 16 18 18 14 14 16 15 12 10 9 8 6 6 9 11 14 19 21 24 28 28 26 27
7 8 9 10 12 13 13 12 12 12 12 12 12 12 12 12 12 12 12 12 11 11 12 12 12 12 12 12 12 12 12 12 12 11 11 10 11 11 11 11 11 11 13 14 16 18 20 19 19 19 20 20 19 17 17 16 15 13 12 13 14 13 14 15 15 15 16 15 14 14 14 10 5 5 7 7 9 13 15 17 21 23 26 29 30 28 32
8 10 11 11 12 12 12 12 12 12 12 12 12 11 11 11 11 11 12 11 11 12 12 11 11 11 11 11 11 11 12 11 11 11 10 10 10 10 11 11 11 13 15 16 18 20 20 20 19 19 18 18 17 16 16 13 11 12 13 14 14 13 15 17 14 13 15 17 16 14 9 4 1 3 7 9 12 15 18 21 25 28 31 32 32 34 37
10 10 10 11 11 11 12 12 12 12 12 11 11 11 11 11 11 11 11 11 11 11 11 11 11 11 11 11 11 11 12 11 11 10 9 9 9 10 11 12 13 15 16 17 20 21 20 19 18 17 17 16 15 15 13 11 11 14 15 14 14 15 17 17 13 12 14 16 16 11 3 2 3 7 10 12 15 16 18 22 28 33 37 38 38 37 35
10 10 11 11 11 11 12 12 11 11 11 11 11 11 11 11 11 11 11 11 11 11 11 11 11 11 12 12 12 12 11 11 10 9 8 8 8 10 12 14 15 17 17 19 21 20 18 18 17 18 18 15 14 13 11 12 15 16 14 14 16 17 16 15 13 11 11 13 12 7 3 4 8 13 16 17 17 18 22 30 34 36 39 40 36 32 31
10 10 11 11 11 12 11 11 11 11 11 11 11 11 11 11 11 11 11 12 11 11 11 11 11 12 12 12 12 11 11 10 10 9 8 8 9 11 13 15 17 17 18 21 21 19 19 19 19 19 17 13 11 11 12 14 15 14 14 16 18 17 14 13 12 8 7 11 12 9 8 7 8 11 13 15 18 20 25 35 40 39 37 34 29 31 38
10 10 11 11 11 11 11 11 11 11 11 11 11 12 11 11 11 11 12 12 11 11 12 12 12 12 12 12 11 11 11 10 9 9 8 8 10 12 15 17 18 18 20 22 21 19 20 20 19 16 13 10 11 12 12 14 14 13 15 17 18 16 14 11 8 6 8 11 11 8 5 5 6 10 12 15 19 19 27 40 43 33 26 27 32 40 48
10 10 10 10 11 11 11 11 11 12 12 12 12 12 12 12 12 11 12 12 11 11 12 12 12 12 12 12 12 12 12 10 10 9 8 10 12 14 16 19 19 19 21 23 21 20 21 21 18 14 10 10 13 12 11 10 11 14 18 19 18 17 15 11 7 6 9 11 9 6 3 3 9 15 18 19 22 28 36 38 32 25 25 33 42 47 50
10 10 10 10 11 11 11 12 12 12 13 12 12 12 12 12 12 12 12 12 11 12 12 12 12 12 12 12 12 12 12 11 10 10 10 12 13 15 18 20 20 20 23 23 22 22 23 20 16 12 10 12 14 12 9 8 11 15 18 19 19 18 15 11 8 8 11 10 8 8 7 8 14 20 23 26 33 40 35 22 23 35 42 44 47 47 48
10 10 11 11 11 12 12 13 13 13 13 13 13 12 12 12 12 11 12 11 11 12 12 12 13 12 12 12 12 12 12 11 11 11 13 14 15 17 20 21 20 22 24 24 23 23 22 17 14 13 12 12 12 10 9 9 11 13 15 15 16 17 14 10 10 13 14 10 9 11 12 15 19 21 28 38 44 39 24 16 30 46 49 46 47 47 47
10 11 11 12 12 13 13 14 14 14 13 13 13 13 13 12 12 12 12 12 12 12 12 12 13 12 12 12 12 12 12 12 12 13 16 16 17 19 21 21 22 25 26 25 24 23 19 15 14 14 10 8 10 11 11 11 10 11 13 13 14 16 13 8 12 17 15 10 13 14 11 15 22 27 34 44 43 32 25 30 40 44 44 46 47 46 47
11 12 13 13 14 14 14 14 14 14 14 14 14 13 13 12 12 12 12 12 12 12 12 13 13 12 12 12 13 13 13 13 14 16 17 17 18 21 22 22 24 27 27 25 24 21 17 14 14 13 8 7 10 11 11 11 10 11 13 12 12 14 11 8 12 18 15 12 12 9 9 20 31 36 40 43 38 29 31 39 42 41 44 45 45 46 48
13 13 14 14 14 14 15 15 14 14 14 14 13 13 12 12 12 11 12 12 12 13 13 14 13 12 13 13 14 14 15 15 16 17 18 18 20 22 23 25 27 27 25 24 21 18 16 14 13 11 8 8 11 9 7 8 9 11 13 11 11 12 10 9 12 14 13 14 13 10 17 27 33 35 39 39 34 30 34 39 42 43 44 44 46 48 48
14 14 14 15 15 15 15 15 15 15 14 14 13 13 12 12 12 12 12 13 13 13 14 14 13 13 14 14 15 16 16 16 17 18 18 19 20 22 23 26 27 25 23 21 18 16 15 14 12 11 8 8 10 9 7 6 7 10 12 11 10 10 10 12 14 12 14 19 19 18 22 28 30 31 34 35 32 33 37 40 42 43 43 45 48 48 47
14 15 15 15 15 15 16 16 15 15 15 14 14 13 13 13 13 13 14 14 14 14 15 13 13 14 15 16 17 17 17 18 18 19 19 20 21 23 25 27 26 23 21 18 16 14 13 12 11 10 8 8 8 8 7 6 7 9 10 10 11 10 10 13 16 18 20 20 20 23 26 29 30 30 32 34 36 37 40 41 41 42 43 45 48 49 49
14 15 15 15 15 16 16 16 16 15 15 15 15 14 14 14 14 14 15 15 15 16 15 13 14 16 17 18 17 17 17 18 19 19 20 21 23 25 26 26 24 21 18 16 14 13 12 10 10 8 7 6 6 7 7 6 7 9 9 9 11 12 13 17 21 25 27 24 24 30 33 31 30 32 34 37 38 38 40 41 42 44 45 46 48 50 51
14 15 15 16 16 16 16 16 16 15 15 15 15 15 15 15 15 15 15 16 16 16 15 15 16 17 18 18 17 17 18 19 19 20 21 23 24 26 26 24 21 18 16 14 13 13 11 10 9 8 7 6 6 7 8 7 8 9 8 9 12 15 19 24 28 31 32 30 30 35 35 32 32 35 37 39 40 40 41 42 44 46 47 47 48 50 51
15 16 16 16 16 16 16 16 16 16 16 16 16 16 16 15 16 16 16 17 17 17 16 17 18 18 18 17 17 17 18 18 19 20 22 24 25 25 23 21 19 16 14 13 13 12 10 9 9 8 7 7 7 8 8 7 8 10 10 11 15 19 23 29 34 35 34 33 33 37 39 37 36 37 38 39 40 42 42 43 45 47 48 48 49 49 50
17 17 17 17 17 17 17 17 17 17 17 17 18 17 17 16 17 17 17 17 17 17 17 18 18 18 17 17 16 17 18 19 20 22 24 24 24 23 21 19 17 15 14 14 13 11 9 9 8 8 7 7 8 8 9 9 10 11 12 13 17 23 29 33 36 37 36 35 36 38 40 40 40 39 39 40 41 42 44 45 46 47 48 49 49 49 49
18 18 18 18 18 17 17 17 17 17 17 18 19 18 17 17 17 18 18 17 17 17 18 18 17 17 16 16 16 17 19 20 22 23 23 23 22 20 19 17 15 14 14 14 12 10 9 9 9 8 8 7 9 10 10 11 12 13 14 17 22 29 33 34 35 36 36 35 35 36 37 38 39 38 39 40 42 44 45 46 47 48 48 48 49 50 51
19 19 19 18 18 18 18 18 18 18 18 19 19 18 18 18 18 18 17 17 18 19 19 18 17 17 16 17 18 19 20 21 22 22 22 21 20 18 17 16 15 15 15 14 12 10 9 9 10 10 8 9 10 11 11 14 16 16 18 23 29 32 33 33 33 34 35 35 35 35 36 37 38 38 39 40 42 44 45 46 47 48 47 47 48 50 51
20 19 19 19 19 18 18 18 18 18 19 20 19 19 18 18 18 18 17 17 19 19 18 17 17 17 17 18 18 19 20 20 21 21 20 19 18 17 16 15 15 15 14 13 12 10 10 11 11 10 9 10 11 11 12 15 17 19 22 28 32 34 33 32 33 34 34 35 36 36 36 37 38 39 39 40 41 44 45 46 47 47 47 48 49 50 51
21 21 20 20 20 19 19 19 19 19 20 20 19 19 19 18 18 17 17 18 20 19 18 17 17 17 17 18 18 18 19 20 20 20 19 18 17 17 16 16 16 15 14 13 11 10 10 12 12 11 11 12 12 13 13 14 16 20 27 32 33 33 33 33 32 33 34 36 37 37 37 37 39 40 40 41 43 45 46 47 47 47 47 48 49 51 51
22 22 22 22 21 21 21 20 20 20 21 20 20 20 19 18 17 17 18 19 20 19 18 17 17 17 17 17 18 18 18 19 19 19 18 18 17 16 16 16 16 15 14 13 11 11 12 13 13 13 13 13 14 14 14 14 18 26 31 33 33 34 34 33 33 34 35 37 39 40 40 39 40 41 42 43 45 46 47 47 47 47 48 49 50 51 51
23 23 23 23 22 22 22 22 21 21 21 21 21 20 19 18 17 17 19 20 19 18 17 17 16 16 16 16 17 18 18 19 19 19 18 17 17 16 16 16 15 15 14 13 11 11 13 14 14 14 14 15 16 16 15 18 25 30 32 32 33 34 34 34 34 36 37 38 40 41 42 42 42 42 43 45 46 47 47 47 47 48 48 49 51 51 52
24 24 24 24 24 23 23 23 22 22 22 21 21 20 19 18 18 19 19 19 18 17 16 15 15 15 16 16 17 17 18 19 19 19 18 17 16 16 16 15 15 14 14 13 11 12 14 16 15 15 15 16 17 17 19 25 30 32 31 32 34 35 35 36 37 38 39 40 41 41 41 42 43 43 44 45 46 47 48 48 48 48 49 50 52 53 53
25 25 25 26 26 25 24 24 24 23 22 21 20 19 19 18 18 19 18 17 16 15 15 15 15 15 16 17 18 18 18 19 19 19 17 16 16 16 15 15 15 14 14 13 12 13 15 18 17 16 16 17 18 19 24 30 32 32 32 34 35 36 38 39 40 41 42 42 42 42 42 42 43 45 45 46 47 48 48 48 49 49 50 51 53 53 54
26 25 26 27 27 26 25 25 25 23 22 21 20 19 19 19 18 18 17 16 15 15 14 15 15 16 17 19 19 18 18 19 19 19 17 16 16 16 15 15 15 14 14 14 14 14 17 19 18 17 18 19 20 24 30 33 33 33 34 35 37 38 40 41 42 43 43 42 42 42 42 43 44 45 46 47 48 48 48 48 49 50 51 52 53 54 54
26 26 26 27 28 27 26 26 26 24 22 20 20 19 18 18 18 17 16 15 15 14 14 15 16 17 18 20 20 19 19 19 19 18 17 16 16 15 15 16 15 14 15 15 15 15 18 20 20 20 20 21 24 29 32 33 33 34 35 37 38 40 41 42 43 44 43 43 43 43 43 44 45 46 47 48 48 49 49 48 49 49 50 52 53 53 54
26 26 26 26 27 28 26 26 26 25 22 20 20 19 18 18 18 17 15 14 14 15 15 16 17 18 19 21 20 19 19 19 18 17 17 16 15 15 16 16 14 14 15 16 15 17 19 20 20 21 22 24 27 31 33 34 35 36 37 38 40 41 42 43 44 44 44 44 44 44 45 45 46 47 48 48 48 48 48 48 48 49 50 51 52 53 53
26 27 26 25 26 27 26 26 26 24 22 21 20 19 19 18 18 17 16 15 16 16 17 18 19 20 21 21 20 19 19 18 17 17 17 16 15 16 16 14 13 14 16 16 16 19 21 22 22 23 26 29 32 34 34 35 36 37 38 39 41 42 42 43 43 44 44 44 44 45 45 46 47 48 49 49 48 48 48 48 48 49 50 51 52 53 53
25 26 26 25 25 27 26 26 25 24 22 21 20 19 18 18 18 18 17 16 17 19 20 20 22 22 22 22 21 19 19 18 17 16 16 15 15 16 15 14 14 15 15 16 18 21 22 23 24 25 28 32 34 35 35 35 36 37 39 41 41 42 43 43 43 44 44 43 43 44 44 45 47 48 49 49 48 48 48 48 49 50 50 51 52 52 53
25 26 26 24 25 26 26 25 24 23 21 20 20 19 18 18 19 19 18 18 19 21 21 22 22 23 22 21 20 19 18 17 17 16 15 15 16 16 15 14 14 14 14 16 19 22 22 23 25 27 30 32 34 34 34 35 36 37 39 41 42 43 43 43 43 44 44 43 43 44 44 45 46 48 49 49 48 48 48 49 49 50 51 51 52 52 52
25 26 26 24 24 26 25 23 23 22 20 19 19 19 18 19 20 20 19 19 21 21 22 23 24 23 22 21 20 19 18 17 16 15 15 16 16 16 14 15 15 14 15 17 20 21 22 23 26 29 31 33 33 33 34 35 36 38 40 41 42 43 43 43 43 44 44 44 44 44 45 45 46 47 48 48 48 48 48 49 49 50 50 51 51 52 52
25 26 26 24 23 25 24 22 21 21 19 18 19 19 18 19 20 20 19 20 21 22 22 23 24 23 22 21 21 19 18 16 16 15 15 16 16 15 15 15 16 16 17 18 20 21 22 24 27 30 32 33 33 34 35 36 37 39 40 41 42 43 43 44 44 44 43 43 44 44 45 46 46 47 48 48 47 47 48 49 49 50 50 51 51 52 52
25 26 25 23 23 24 23 21 21 21 19 18 20 20 19 20 21 21 20 21 22 22 23 24 24 23 22 22 20 19 17 16 15 15 15 16 16 15 15 16 17 17 18 19 20 22 24 26 29 31 32 33 33 34 35 36 38 40 41 42 43 44 44 44 44 43 43 43 43 44 45 46 47 47 47 47 47 47 48 48 49 50 50 51 52 52 52
24 25 24 22 22 24 22 20 20 21 20 19 20 20 20 21 22 21 22 22 22 22 23 24 23 23 22 21 20 18 16 15 14 14 15 16 16 16 16 17 18 18 18 20 22 25 27 30 32 33 33 33 34 34 35 37 39 41 42 43 43 44 44 44 44 43 43 43 44 44 45 46 47 47 47 47 47 48 48 48 49 50 51 51 52 51 51
24 24 23 22 22 23 23 21 20 20 19 19 19 19 20 21 22 21 22 22 22 22 23 23 23 22 22 21 19 17 15 14 13 14 15 16 16 17 17 18 19 19 20 22 25 28 30 32 33 33 33 34 34 35 36 38 40 41 43 43 44 44 44 44 43 43 43 43 43 44 45 46 47 47 47 47 47 47 47 48 49 50 51 51 51 51 51
23 23 22 21 21 22 23 22 20 19 18 18 19 20 20 21 22 22 22 22 22 22 23 23 22 22 21 20 18 16 14 13 13 14 15 16 17 17 17 18 18 19 21 24 28 30 32 33 33 34 34 35 35 36 37 39 41 42 43 44 44 44 43 43 42 42 42 43 43 44 45 46 47 47 46 46 46 47 47 48 48 49 50 50 50 50 51
22 22 21 21 21 22 23 22 21 19 19 19 19 20 21 22 22 22 23 23 22 23 23 23 22 22 21 19 17 15 14 13 13 14 15 17 17 17 17 18 19 21 23 27 30 32 33 33 34 35 35 36 36 36 37 39 41 43 44 44 44 44 43 42 42 42 42 43 43 44 45 46 47 47 46 46 46 46 47 48 48 48 49 49 49 49 50
21 21 21 21 22 23 24 23 22 21 20 20 20 21 21 22 22 23 23 23 23 23 23 23 22 22 20 19 16 14 13 13 13 14 15 16 17 17 18 20 22 24 27 30 32 34 34 35 35 36 36 37 36 36 37 39 41 43 44 44 44 43 42 42 41 42 42 42 43 44 45 46 46 47 46 46 46 46 47 48 48 47 47 48 48 48 49
21 21 22 22 23 24 24 24 23 22 22 21 20 21 22 23 23 24 24 24 24 24 23 22 22 21 20 18 16 13 13 13 14 14 15 16 17 18 20 22 24 27 30 32 33 34 36 36 37 37 37 37 37 37 38 40 42 43 44 44 43 42 42 41 41 41 41 42 42 43 44 45 45 46 46 46 46 46 46 47 47 47 46 46 46 46 47
22 22 23 23 24 25 25 25 25 24 23 22 21 22 23 23 24 25 25 25 24 24 23 23 22 21 19 17 15 14 13 14 14 14 16 17 18 20 21 23 26 28 31 33 34 35 36 37 37 38 38 38 38 38 39 41 42 43 44 44 43 42 42 41 41 40 40 41 42 43 44 44 45 45 46 46 46 46 45 45 46 47 46 45 45 45 46
22 23 23 23 24 25 26 26 26 26 25 24 23 23 23 24 25 26 26 26 26 25 23 23 22 21 18 17 15 15 14 14 15 16 17 19 20 21 23 25 27 29 32 34 35 36 37 38 38 39 39 38 38 39 40 41 42 43 43 44 43 43 42 41 41 40 40 41 42 43 44 45 45 45 46 46 46 46 46 46 46 47 47 47 46 45 45
Wind_Direction
276 320 335 337 337 338 338 333 330 330 330 330 330 329 330 333 336 338 341 342 341 340 341 345 347 344 340 338 336 335 334 332 331 332 332 332 333 333 331 330 330 329 328 329 330 333 335 332 326 322 323 323 319 315 317 319 320 322 322 319 316 318 315 307 311 318 318 312 304 296 293 312 338 336 324 310 301 304 299 289 293 296 287 285 284 266 267
291 318 328 329 331 331 329 326 326 328 329 328 329 331 334 338 340 342 345 344 342 344 344 343 343 341 339 336 334 335 334 332 334 335 334 334 335 335 333 331 331 330 330 331 332 334 333 324 321 323 323 323 321 318 319 320 320 320 319 317 316 317 311 308 314 321 324 323 340 0 323 318 326 329 316 299 298 302 304 302 298 290 280 278 267 252 273
294 315 324 325 325 324 322 323 326 328 329 329 332 338 340 341 342 344 344 342 342 344 341 339 340 338 337 335 335 338 337 336 337 337 336 336 337 336 334 332 333 333 333 331 329 331 330 322 323 325 323 323 322 320 320 321 320 319 319 318 316 312 307 306 305 302 313 312 311 322 316 312 317 319 304 300 304 306 311 317 301 280 293 294 282 283 287
304 314 317 318 319 320 322 325 328 328 330 333 337 341 341 340 340 340 341 341 340 340 338 338 339 339 339 338 339 341 342 340 338 339 340 338 337 337 336 336 337 335 333 332 331 334 333 327 324 324 325 328 327 325 325 323 322 323 322 321 319 314 311 309 296 280 282 290 298 308 309 306 310 311 305 306 312 314 320 323 301 294 308 302 289 297 303
309 311 313 315 318 322 325 328 329 331 334 337 338 337 336 337 337 337 339 341 339 337 339 340 341 341 342 343 343 343 343 342 341 341 342 340 338 338 339 340 339 336 335 336 336 337 336 334 332 333 334 333 331 329 328 326 325 326 326 325 322 316 313 314 310 302 300 305 311 314 309 307 310 308 305 310 317 322 326 330 328 328 320 307 305 314 315
310 313 315 318 322 327 330 332 333 335 336 335 334 333 333 335 337 337 340 341 340 341 343 345 344 344 345 345 345 343 343 344 344 343 343 342 341 341 343 344 341 338 339 340 341 341 342 341 341 342 340 335 333 331 329 329 329 328 327 324 323 319 314 318 320 316 319 324 325 325 323 321 313 300 301 310 323 336 341 339 343 343 323 304 309 316 320
315 318 321 325 329 332 335 336 334 333 332 331 332 334 336 338 340 341 342 343 344 345 346 346 346 347 347 348 348 346 345 346 346 344 344 345 345 344 346 346 345 345 346 347 348 348 347 344 342 342 339 334 333 331 329 329 326 325 325 324 325 322 315 322 325 321 328 337 338 338 334 325 308 290 294 307 316 336 338 325 324 323 313 307 312 318 322
323 326 330 333 335 336 336 333 331 331 332 334 337 340 342 343 343 343 344 346 347 347 347 347 349 349 350 351 351 349 348 347 346 346 346 348 350 348 350 354 354 353 353 354 355 353 347 341 337 337 335 332 332 329 326 325 322 323 325 325 327 325 319 326 328 326 335 342 338 338 333 315 295 286 293 302 292 289 308 316 322 322 319 320 321 319 313
333 336 339 339 336 333 332 332 333 335 338 341 343 343 343 343 342 343 345 348 349 351 352 350 350 352 353 353 351 350 349 347 347 349 350 352 355 356 358 2 3 2 1 359 358 353 346 339 333 331 330 329 329 325 322 322 321 325 330 331 333 331 327 332 331 329 334 333 328 332 322 296 282 287 295 313 320 319 323 330 336 334 327 324 322 316 307
344 342 338 336 333 333 336 339 341 342 343 344 343 342 342 342 343 344 348 351 352 354 356 354 352 353 353 351 349 348 349 348 349 353 356 358 2 3 3 4 6 6 2 357 352 346 341 335 331 329 328 327 327 323 321 322 324 330 337 337 338 337 333 337 335 326 326 331 334 330 311 293 292 301 303 316 323 320 321 329 335 332 325 322 319 313 307
344 340 338 338 339 341 344 344 344 343 344 344 344 344 344 346 348 349 351 355 357 356 356 354 353 351 349 348 348 348 350 352 353 356 1 4 7 7 6 6 3 359 354 349 344 340 337 334 332 331 330 329 329 326 324 326 330 335 338 338 340 342 338 339 335 319 321 337 345 333 308 274 213 276 287 298 309 316 324 335 338 329 322 321 316 307 301
346 345 346 347 347 346 346 345 346 347 349 350 350 350 351 351 353 353 354 356 357 355 354 351 349 349 347 347 349 350 352 354 355 357 1 4 8 10 8 3 356 350 346 341 339 337 336 336 335 335 336 335 333 330 328 330 333 334 337 340 343 342 338 339 337 320 319 339 350 346 343 153 222 266 278 287 295 301 309 321 328 324 319 319 313 305 300
355 355 354 353 352 352 353 354 355 356 356 357 356 355 355 354 354 354 353 353 353 352 352 350 348 347 348 349 350 350 350 352 352 354 357 1 6 5 2 357 351 347 343 340 339 339 339 339 337 339 341 338 333 330 328 330 331 333 339 343 343 343 343 343 343 330 322 338 352 345 286 223 240 261 273 283 290 299 311 319 324 322 318 315 309 301 299
3 1 1 2 3 3 2 1 1 0 359 358 358 357 356 354 354 353 351 351 351 351 351 350 347 346 347 347 346 345 345 347 348 350 351 354 356 353 351 350 347 345 343 342 342 341 341 342 341 341 340 334 330 328 325 327 330 332 338 340 342 347 348 344 347 352 339 336 336 312 269 244 254 273 286 301 312 324 332 329 322 317 312 308 301 299 305
12 12 12 11 9 6 4 2 1 359 358 357 357 356 356 354 353 352 351 351 351 351 350 348 346 345 343 341 341 342 343 343 345 346 345 345 344 342 343 345 344 344 345 344 343 342 342 342 342 341 335 325 327 328 323 328 331 328 330 335 343 352 355 353 356 358 345 339 334 314 267 248 285 293 296 307 313 322 328 322 315 310 305 302 303 309 317
19 17 14 11 7 5 3 1 359 358 357 356 355 355 355 355 354 353 353 352 350 350 349 345 343 340 338 338 339 340 341 340 340 339 336 337 338 337 339 342 342 343 344 344 342 341 340 339 339 338 325 313 321 325 322 326 325 320 326 334 344 355 1 5 9 356 344 342 332 313 287 268 287 292 298 306 310 316 321 316 308 306 309 314 319 323 326
18 14 10 7 4 2 1 0 359 359 357 355 354 353 353 354 354 353 352 350 348 346 344 341 339 336 336 338 338 339 338 337 335 334 332 333 334 334 338 340 341 341 343 343 340 338 339 338 335 331 319 310 318 324 323 319 316 320 330 336 341 350 358 6 15 3 348 341 322 305 296 282 286 297 307 311 313 319 322 313 305 317 324 327 328 327 325
13 10 6 4 2 0 360 359 359 358 357 355 353 352 352 352 352 352 350 347 344 342 340 339 337 335 336 337 337 337 335 332 331 329 328 330 332 334 337 339 339 340 341 341 339 337 338 337 329 328 326 320 323 327 322 317 315 321 330 331 334 348 3 7 357 352 356 354 326 308 290 281 292 308 314 314 318 324 328 312 312 322 329 329 326 324 324
9 6 4 2 0 359 358 357 356 355 354 353 351 350 350 349 349 349 347 344 342 339 337 337 336 334 335 334 333 333 332 329 328 327 328 331 333 334 336 336 338 339 340 340 338 337 338 333 326 330 332 320 319 321 320 322 322 323 331 334 337 350 4 5 344 346 356 352 325 314 290 287 307 318 317 318 325 333 326 316 316 320 324 325 324 324 325
4 2 359 357 356 354 352 351 351 349 349 349 348 348 347 347 346 346 344 341 340 338 336 336 334 332 333 332 331 331 330 327 326 327 328 329 330 333 336 338 339 339 339 338 337 336 335 330 326 331 333 316 317 320 322 326 327 328 337 342 342 345 354 1 351 349 349 344 340 335 301 302 316 322 320 323 331 330 318 317 319 320 322 325 325 326 326
359 358 357 355 354 352 350 348 347 346 345 345 344 344 345 344 344 343 341 339 338 337 336 334 332 331 333 333 331 330 327 324 325 326 326 326 329 334 338 339 339 338 338 337 336 333 332 330 328 331 332 320 322 326 325 320 319 327 336 340 342 345 347 349 354 354 344 334 332 316 299 306 317 322 320 323 327 321 314 318 322 324 326 327 326 327 329
1 0 360 358 356 355 353 352 350 349 347 345 344 344 344 343 342 341 339 337 337 336 336 335 333 333 334 333 330 327 325 323 324 325 325 325 329 333 335 336 337 338 337 336 334 332 332 330 327 327 322 312 314 320 322 308 300 314 328 334 341 349 349 343 343 343 336 326 314 301 302 312 319 319 318 322 324 321 320 323 325 327 328 326 326 328 328
3 2 1 359 358 357 356 356 355 354 352 350 347 345 343 342 341 339 338 337 337 337 337 337 335 334 334 332 329 326 324 323 323 325 326 327 329 331 333 335 337 337 336 336 335 332 331 328 323 319 312 309 311 317 321 311 297 306 321 331 340 346 347 342 333 328 331 327 311 304 313 321 323 322 323 327 327 325 325 327 327 328 329 327 327 328 329
4 3 2 1 1 0 359 359 358 358 356 354 350 347 344 341 339 338 337 337 337 337 338 337 335 334 333 331 329 326 324 324 324 326 329 329 330 332 333 335 336 336 336 336 336 334 331 327 324 319 314 316 314 309 312 316 315 315 318 329 339 338 333 333 330 329 332 330 318 318 325 329 330 329 329 329 328 328 329 329 329 330 331 329 328 329 331
6 5 5 4 3 2 1 0 360 359 358 356 353 350 347 344 342 340 339 338 338 338 338 336 335 335 333 331 330 329 327 327 328 329 331 331 331 332 334 336 337 338 338 337 336 335 331 329 332 331 326 327 321 310 310 314 317 315 312 324 337 334 329 331 332 330 332 331 326 326 330 333 335 334 332 331 330 329 330 331 331 331 331 330 331 332 333
8 7 6 5 4 2 1 0 0 0 359 358 356 354 351 349 347 346 344 342 341 341 341 338 337 336 335 334 334 333 332 332 332 332 332 331 332 334 336 338 339 340 340 339 338 338 337 339 344 344 334 330 329 323 319 319 318 314 310 319 330 331 330 331 330 330 333 334 332 331 333 335 337 336 333 332 330 330 332 334 333 331 331 332 333 334 333
10 9 7 5 4 3 3 2 1 1 1 360 358 355 353 353 352 349 347 347 345 344 343 342 339 338 337 338 338 337 335 335 334 333 332 333 334 336 338 340 342 343 342 341 341 342 345 350 353 351 343 339 339 334 328 325 324 319 314 317 326 330 332 332 332 333 336 337 336 336 335 334 334 334 332 331 331 331 334 334 331 331 332 333 333 333 333
12 10 8 6 5 5 4 2 1 0 360 358 356 354 352 352 351 349 348 349 349 347 345 343 341 340 339 339 339 338 336 335 334 334 334 336 338 340 341 342 344 345 343 343 344 346 352 0 1 354 350 348 343 338 332 327 324 324 324 328 332 333 334 335 334 335 336 336 335 335 333 330 331 332 332 332 332 333 333 332 331 332 333 333 332 332 333
15 12 10 7 6 5 3 1 359 358 356 353 352 351 350 349 349 348 348 350 350 348 346 344 344 342 340 339 339 338 336 335 335 336 338 339 341 343 343 343 345 346 346 346 348 351 358 6 4 356 353 351 343 337 332 328 329 333 336 335 333 333 334 336 335 334 334 333 333 333 332 330 331 332 332 333 333 332 331 331 332 332 333 333 333 333 333
16 13 10 8 5 3 1 359 356 354 353 351 350 350 349 348 347 348 349 349 349 348 347 346 345 343 341 340 339 338 336 337 339 340 341 342 343 344 345 345 346 347 349 349 351 356 3 5 2 356 354 351 344 337 333 330 331 335 336 333 331 332 335 337 336 334 332 331 331 333 333 331 330 331 333 334 333 331 331 332 332 332 333 334 333 333 334
16 12 9 6 4 1 359 357 355 353 352 351 351 350 349 349 349 350 349 349 348 349 348 346 344 343 342 341 340 339 339 340 342 342 343 344 345 344 346 347 347 349 350 349 351 359 3 1 359 357 353 348 342 339 337 334 330 330 331 331 331 333 336 337 335 333 332 332 332 333 333 332 331 332 333 334 334 333 333 333 332 333 334 334 334 333 335
17 13 9 6 3 1 359 357 356 354 353 353 353 352 352 353 353 352 350 349 350 350 349 347 346 346 344 343 342 342 342 342 343 344 344 344 345 346 347 348 348 349 350 350 351 357 0 358 355 353 350 346 342 341 340 336 332 332 333 333 333 334 335 335 335 334 334 333 332 333 333 333 333 334 334 335 335 334 333 333 333 335 335 334 334 334 336
20 16 13 9 6 4 1 359 357 356 354 354 355 355 356 357 356 353 351 351 351 351 350 350 350 349 347 345 343 342 343 343 344 344 344 344 347 348 348 349 348 347 347 348 348 349 353 354 351 350 348 345 343 341 339 337 335 335 335 334 333 333 334 335 336 336 336 335 334 334 334 334 334 334 335 336 335 333 333 333 334 335 335 334 334 336 337
22 19 17 14 11 8 5 3 0 358 357 356 357 358 359 359 357 354 353 352 353 354 354 354 353 350 348 347 345 344 344 344 344 344 344 346 348 348 348 349 348 345 344 346 343 343 348 350 349 347 346 345 343 340 337 336 337 337 336 335 334 334 335 337 338 338 337 336 335 335 334 333 334 335 336 335 334 334 334 334 335 335 335 335 336 337 339
21 19 18 16 13 11 9 6 3 1 360 359 359 0 360 359 357 355 354 354 356 357 356 355 354 351 348 349 349 347 346 345 345 345 346 348 349 349 349 351 349 344 343 344 340 340 343 345 345 346 345 343 342 339 336 337 337 338 337 336 335 336 338 339 339 338 337 336 335 334 334 334 335 335 335 335 335 335 335 336 336 335 336 337 338 339 340
19 18 16 15 14 12 10 8 5 3 2 1 1 1 360 358 357 356 356 357 358 358 356 354 353 351 351 352 351 348 346 346 347 347 348 350 350 350 350 351 348 345 343 341 337 336 339 340 341 343 343 342 342 340 338 337 338 339 339 338 338 339 340 339 338 337 336 335 335 335 335 335 335 335 335 336 336 336 336 336 336 336 337 338 339 339 340
16 15 13 13 12 11 10 8 6 5 4 3 2 2 360 358 357 357 358 358 357 355 355 354 354 353 353 353 350 348 347 347 348 348 349 350 351 351 350 349 348 345 341 338 335 336 337 337 338 340 342 343 342 340 338 338 339 340 340 340 339 339 339 338 336 336 335 335 335 335 336 336 335 335 336 337 337 337 336 336 336 337 338 339 339 340 341
13 12 11 10 10 10 9 7 6 5 4 4 3 2 0 359 359 358 357 355 354 354 354 354 354 355 354 352 350 348 348 348 348 349 350 350 352 352 349 347 346 343 338 336 336 337 337 337 337 338 341 342 341 339 339 340 341 341 341 340 339 339 339 337 336 335 336 336 336 336 336 336 335 335 336 337 338 337 336 336 337 338 339 340 340 340 341
10 9 8 8 8 8 7 6 5 5 4 3 4 2 0 359 358 357 355 354 353 353 353 354 355 354 353 352 350 349 348 348 349 350 351 351 352 352 349 345 345 342 337 336 338 338 337 336 336 338 340 342 341 341 341 341 341 340 340 340 339 338 338 337 336 336 337 337 337 337 337 336 335 336 337 338 338 337 336 337 338 339 340 341 341 341 341
7 7 6 5 6 6 6 5 5 4 3 2 3 2 360 358 356 356 356 355 353 353 353 354 354 352 351 351 350 349 348 348 349 351 352 352 352 352 349 346 344 341 338 338 339 338 336 335 336 338 342 342 341 340 340 340 341 340 339 339 338 338 337 337 336 336 337 337 337 337 337 337 337 337 337 338 338 337 337 338 339 340 341 341 341 341 342
5 5 4 4 4 4 4 3 3 3 2 2 1 360 358 357 356 356 355 354 353 352 351 352 351 350 350 350 349 349 349 349 349 352 354 353 352 352 349 348 346 343 339 339 339 337 336 334 335 338 341 340 339 338 338 339 340 340 339 338 338 337 337 337 337 337 338 338 337 337 338 338 338 338 338 338 338 338 338 339 340 341 342 342 342 342 342
2 2 2 2 2 2 2 1 2 2 2 1 0 359 358 357 356 355 354 353 351 349 348 348 348 349 349 349 349 348 349 349 350 352 354 354 352 351 350 350 348 343 338 338 338 337 336 334 335 338 341 339 337 338 339 340 341 341 339 338 337 337 337 338 338 338 338 338 338 338 338 338 339 338 338 338 339 339 339 340 341 342 342 342 342 342 343
359 0 1 2 2 1 0 0 2 3 1 359 359 359 358 357 355 353 352 350 348 346 346 346 346 347 348 348 348 348 348 349 350 353 354 354 352 351 351 350 347 342 340 339 340 339 337 334 335 338 339 337 336 338 339 340 341 341 339 337 337 338 338 339 338 338 338 338 337 338 338 339 339 339 338 338 339 339 340 340 341 342 342 342 343 343 343
357 359 0 1 1 1 0 359 1 3 1 358 358 358 356 354 352 350 348 347 345 344 345 345 345 346 347 347 347 347 347 348 350 352 353 353 352 352 351 349 346 345 344 342 342 341 338 336 337 338 338 336 337 339 339 339 340 340 339 338 338 339 339 339 338 338 338 338 337 338 339 339 339 339 339 339 339 340 341 341 342 342 343 343 344 344 343
356 358 360 1 2 3 2 1 2 1 359 358 357 356 353 351 350 348 346 344 343 342 343 344 345 345 345 345 346 346 346 347 349 351 352 352 352 352 351 349 348 348 347 345 343 342 339 339 339 339 337 337 338 338 338 338 339 339 339 339 339 339 339 338 338 338 338 338 338 339 339 339 339 339 340 340 340 341 342 342 342 343 344 344 344 343 343
356 358 359 2 4 5 5 4 2 360 357 355 355 353 351 349 348 346 343 341 341 341 342 344 344 344 345 345 345 345 346 348 349 350 351 352 352 352 351 350 351 350 347 345 344 342 340 340 340 339 337 337 338 338 338 338 338 339 339 339 340 339 339 338 338 338 338 338 339 339 339 339 339 340 340 340 341 341 343 343 343 344 345 345 344 343 343
356 357 359 3 6 6 6 4 1 358 356 354 353 352 351 349 346 344 342 340 340 341 342 344 344 344 344 344 345 345 346 347 347 349 351 352 352 352 352 351 351 350 346 344 343 342 342 342 341 339 337 338 338 338 337 337 337 338 339 340 339 339 339 338 337 337 337 338 339 339 339 339 340 340 341 341 342 343 343 344 344 345 345 344 344 344 343
355 356 1 7 8 6 6 5 2 359 356 353 352 351 350 348 346 344 342 341 341 342 343 344 344 344 343 344 344 344 344 345 347 349 350 351 352 353 352 351 349 348 346 344 344 344 344 343 341 339 339 338 338 337 336 336 336 338 339 339 339 339 339 338 337 337 338 339 339 338 339 340 340 341 341 342 343 344 344 345 345 345 345 344 345 344 344
353 356 2 6 6 5 5 6 4 1 356 352 350 350 348 347 345 345 344 342 342 342 342 343 343 342 342 343 342 342 343 345 345 346 348 350 351 351 349 348 347 347 346 346 345 345 345 344 342 341 340 339 339 337 335 335 337 339 339 339 339 339 338 338 338 338 339 339 338 338 340 341 341 341 342 343 344 345 346 345 345 345 345 345 345 345 344
351 355 0 3 4 5 5 6 5 2 357 353 349 348 346 345 345 345 345 344 343 342 342 342 342 342 342 342 341 341 341 342 342 343 345 347 347 346 346 346 346 345 346 346 346 346 346 345 343 342 341 340 339 337 336 337 339 339 339 339 339 339 338 338 339 339 339 338 338 339 340 341 342 342 343 344 345 346 346 345 344 344 345 346 346 346 345
352 356 358 360 2 3 4 5 5 3 358 353 349 346 345 345 345 346 346 345 343 341 341 341 342 342 341 340 339 338 337 338 340 341 341 341 341 340 341 343 344 345 345 346 346 346 346 345 343 342 342 341 340 339 338 339 339 339 339 339 339 339 339 339 339 339 338 337 338 340 342 342 343 344 344 345 346 346 346 345 345 345 346 346 347 347 347
352 354 355 356 358 360 1 3 3 2 358 354 349 346 344 344 345 345 345 344 342 341 340 341 341 341 339 336 335 334 334 334 335 336 335 335 335 334 335 338 341 343 344 344 345 345 345 344 344 344 343 342 341 340 339 339 339 340 340 340 339 339 339 340 339 338 338 338 339 341 342 343 344 345 345 346 346 346 346 346 346 346 346 346 347 349 349